Location: Noverd
(38.0910°N, 121.6877°W)
Time: 00:46:20
(UTC+00:00)

Envisat - Pass Details

Date: 17 April 2026
Orbit: 761 x 762 km, 98.4° (Epoch: 19 May)

Event Time Altitude Azimuth Distance (km) Brightness Sun altitude
Rises 11:45:31 0° 358° (N) 3,231 6.7 -19.4°
Reaches altitude 10° 11:48:13 10° 345° (NNW) 2,301 5.7 -19.0°
Maximum altitude 11:52:10 24° 293° (WNW) 1,560 4.3 -18.3°
Enters shadow 11:52:45 23° 283° (WNW) 1,579 4.2 -18.2°
